Location: Kam�li
(14.6864°N, 3.1482°W)
Time: 23:52:31
(UTC+00:00)

Cosmos-2242 - Pass Details

Date: 29 October 2020
Orbit: 592 x 616 km, 82.5° (Epoch: 03 December)

Event Time Altitude Azimuth Distance (km) Brightness Sun altitude
Rises 18:37:07 0° 166° (SSE) 2,814 6.4 -13.1°
Reaches altitude 10° 18:39:27 10° 157° (SSE) 1,914 5.5 -13.7°
Maximum altitude 18:43:17 34° 92° (E) 986 3.6 -14.6°
Enters shadow 18:45:59 17° 36° (NE) 1,526 4.7 -15.2°
